Temperature
14 14 14 15 12 11 13 13 13 14 14 15 16 16 15 15 15 16 15 16 16 16 16 16 16 16 16 16 16 16 17 17 17 16 16 16 16 16 16 16 16 16 16 15 16 16 15 15 15
13 14 14 14 11 12 12 12 13 14 14 15 15 15 14 14 15 15 15 15 15 16 16 15 16 16 16 16 16 16 16 16 16 16 16 16 16 16 16 16 16 16 16 15 15 15 15 15 15
13 14 14 10 11 12 13 13 12 14 14 15 14 14 14 14 14 15 15 15 15 15 15 15 15 16 16 16 16 16 16 16 16 16 16 16 16 16 16 16 16 16 16 15 15 15 15 15 15
13 13 13 10 12 11 12 13 12 13 14 14 13 13 13 14 14 15 15 15 15 15 15 15 15 15 15 15 16 16 16 16 16 16 16 16 16 16 15 15 16 16 15 15 15 15 15 15 15
13 13 10 10 11 11 11 12 13 12 12 13 13 12 13 14 14 14 15 15 15 15 15 15 15 15 15 15 15 15 15 16 16 16 16 16 16 16 16 15 15 15 15 15 15 15 15 15 15
12 10 9 10 11 11 12 12 13 12 12 12 13 12 13 13 14 14 14 14 15 15 15 15 15 15 15 15 15 15 15 15 15 15 15 15 15 15 15 15 15 15 15 15 15 15 15 15 15
11 8 9 10 10 11 12 13 12 11 12 12 13 12 12 13 13 14 14 14 14 14 14 14 14 14 15 15 15 15 15 15 15 15 15 15 15 15 15 15 15 15 15 15 15 15 15 15 14
11 8 10 9 10 11 12 12 13 12 12 13 13 12 12 13 13 13 13 14 14 14 14 14 14 14 14 14 14 14 14 15 15 15 15 15 15 15 15 15 15 15 15 14 14 14 14 14 14
11 8 9 10 10 11 12 12 12 12 12 12 12 13 13 13 13 13 13 13 13 13 14 14 14 14 14 14 14 14 14 14 14 14 14 15 15 15 15 15 14 14 14 14 14 14 14 14 14
10 8 10 10 10 11 11 11 12 12 11 11 12 12 13 13 13 13 13 13 13 13 13 13 13 13 13 13 14 14 14 14 14 14 14 14 14 14 14 14 14 14 14 14 14 14 14 14 14
9 9 10 10 11 11 11 11 12 11 10 11 12 12 12 12 12 12 13 13 13 13 13 13 13 13 13 13 13 13 14 14 14 14 14 14 14 14 14 14 14 14 14 14 14 14 14 14 14
9 9 10 10 11 11 11 11 11 11 12 13 13 13 12 12 12 12 12 13 13 12 12 12 13 13 13 13 13 13 13 13 13 13 13 13 13 13 13 13 13 13 13 13 13 13 13 13 13
9 9 10 10 11 10 10 10 10 10 12 12 12 12 12 12 12 12 12 12 12 12 12 12 12 12 12 12 13 13 13 13 13 13 13 13 13 13 13 13 13 13 13 13 13 13 13 13 13
9 9 9 10 10 10 10 9 10 10 11 11 11 11 11 12 12 12 12 12 12 12 12 12 12 12 12 12 12 12 12 12 12 12 12 12 12 12 12 13 13 13 12 12 13 13 13 13 13
9 8 9 9 9 10 10 9 9 10 11 11 11 11 11 11 11 12 12 12 12 12 12 12 12 12 12 12 12 12 12 12 12 12 12 12 12 12 12 12 12 12 12 12 12 12 12 12 12
8 8 8 9 9 9 10 9 9 10 10 10 10 10 11 11 11 11 11 12 12 12 11 11 11 12 11 12 12 12 12 12 11 11 11 11 11 12 12 12 12 12 12 12 12 12 12 12 12
7 7 8 8 9 9 9 8 9 10 10 9 10 10 10 10 11 11 11 11 11 11 11 11 11 11 11 11 11 11 11 11 11 11 11 11 11 11 11 11 11 11 11 11 11 12 12 12 12
8 7 8 8 8 8 8 8 8 9 9 9 9 10 10 10 11 11 11 11 11 11 11 11 11 11 11 11 11 11 11 11 11 11 11 11 11 11 11 11 11 11 11 11 11 11 11 11 11
8 8 7 8 8 8 7 7 8 8 8 8 8 9 10 10 10 11 11 11 11 11 11 11 11 11 11 10 10 10 10 10 10 10 10 10 10 10 10 10 10 10 10 10 10 10 10 10 10
7 7 7 7 8 8 7 7 7 7 7 8 8 9 9 10 10 10 10 10 10 10 10 10 10 10 10 10 10 10 10 10 10 10 10 10 10 10 10 10 10 10 10 10 10 10 10 10 9
7 7 7 7 7 7 7 8 8 8 8 8 8 9 10 10 10 10 10 10 10 10 10 10 10 10 10 10 10 10 9 10 10 10 10 9 9 9 9 9 9 9 9 9 9 9 9 9 9
7 7 7 7 6 6 7 7 8 7 7 7 8 8 9 10 10 10 10 10 10 10 10 10 10 10 10 9 9 9 9 9 9 9 9 9 9 9 9 9 9 9 9 8 8 8 8 8 8
7 7 6 6 6 6 6 7 7 7 8 8 7 8 9 10 10 10 10 10 10 10 10 10 10 9 9 9 9 9 9 9 9 9 8 8 8 8 8 8 8 8 8 8 8 8 8 8 7
6 6 6 5 5 7 6 6 7 6 8 8 7 8 9 10 10 10 10 10 10 10 10 9 9 9 9 9 9 8 8 8 8 8 8 8 8 8 8 8 8 7 7 7 7 7 7 7 7
6 6 5 6 5 6 6 6 6 7 7 7 7 8 9 10 10 10 10 10 10 10 9 9 9 9 8 8 8 8 8 8 8 7 7 7 7 7 7 7 7 7 7 6 6 7 6 6 6
6 6 6 7 6 5 5 5 6 7 7 7 8 8 9 9 9 9 9 9 10 9 9 9 9 8 8 8 8 8 7 7 7 7 7 7 7 7 7 7 6 6 6 6 6 6 6 6 6
6 5 5 4 4 5 5 5 6 7 7 7 7 8 8 9 9 9 9 9 9 9 9 9 8 8 8 8 7 7 7 7 7 6 6 6 6 6 6 6 6 5 5 5 5 5 5 5 5
6 4 4 4 6 6 6 6 6 7 7 7 6 7 8 9 9 9 9 9 9 9 8 8 8 8 8 7 7 7 7 6 6 6 6 6 6 5 5 5 5 5 5 5 5 5 5 5 5
5 5 4 4 4 5 6 7 7 7 7 6 6 7 8 8 9 9 9 9 8 8 8 8 8 8 7 7 7 6 6 6 6 5 5 5 5 5 5 5 5 5 4 4 4 4 4 4 4
5 5 4 5 5 3 4 6 7 6 6 6 7 7 8 8 8 8 8 8 8 8 8 8 7 7 7 7 6 6 6 5 5 5 5 5 5 4 4 4 4 4 4 4 4 3 3 3 3
Wind_Speed
7 5 3 4 4 2 4 4 3 2 3 1 1 3 6 5 4 3 0 2 5 6 8 10 11 11 11 11 10 10 10 10 9 9 9 9 8 8 8 7 7 7 7 7 7 7 8 8 8
3 2 4 4 4 3 5 4 4 4 4 2 2 3 4 1 1 1 1 2 5 6 8 10 11 11 11 10 10 9 9 9 8 8 8 7 7 7 7 7 6 6 6 6 6 6 7 7 7
2 3 4 4 4 7 5 4 5 2 1 2 2 2 3 2 0 1 1 3 5 6 7 9 11 11 10 10 10 9 9 8 8 7 7 6 6 6 6 6 6 6 5 5 5 5 6 5 6
3 4 4 3 5 5 4 3 3 2 1 2 3 3 1 1 1 1 2 5 7 5 7 9 11 11 10 9 9 9 8 8 7 6 6 6 5 5 5 5 5 5 5 4 4 4 4 4 4
4 4 3 1 4 3 3 3 2 3 2 1 3 3 0 3 2 3 4 6 7 6 6 9 11 10 10 9 8 8 7 7 6 6 5 5 5 4 4 4 4 4 4 3 3 3 3 3 3
4 3 3 4 4 3 2 2 1 2 2 1 3 3 1 2 3 3 5 6 6 6 6 8 10 10 9 8 8 7 7 6 6 5 5 5 4 4 4 4 3 2 2 2 2 2 2 2 2
4 3 3 3 2 3 2 0 2 3 2 3 4 4 1 1 2 4 7 7 7 6 6 7 8 8 8 8 7 7 7 6 6 5 5 4 4 4 4 3 2 1 1 1 2 2 2 2 2
3 4 2 2 3 4 2 1 1 3 3 1 3 5 4 3 3 6 7 8 7 7 6 6 7 8 8 7 8 8 7 7 6 6 5 5 4 4 3 3 2 1 0 1 1 2 2 3 2
3 3 3 4 5 4 1 1 1 1 3 1 0 2 3 6 6 7 7 6 6 6 5 5 6 7 7 7 7 8 8 7 7 6 6 5 4 3 3 2 1 1 1 1 2 2 3 3 3
4 2 4 3 3 3 1 1 1 2 1 1 1 2 5 7 7 7 7 6 5 4 4 4 4 6 6 6 7 7 7 8 7 7 6 5 5 4 3 2 2 2 2 2 2 2 3 3 3
2 3 2 2 2 1 1 1 1 4 3 5 5 6 7 6 6 6 5 5 4 3 4 4 4 5 6 5 6 6 7 7 7 7 6 6 5 5 4 4 3 3 2 2 3 3 2 2 3
1 1 2 2 1 0 1 1 1 3 6 4 6 8 8 7 6 6 6 4 4 5 4 4 4 5 6 6 5 5 5 5 6 6 6 5 4 4 4 3 3 3 2 2 2 2 2 3 3
0 2 2 2 2 1 1 1 1 3 4 2 6 7 7 7 5 4 5 4 4 4 4 3 3 4 4 5 4 5 5 5 5 6 7 6 3 2 3 3 3 3 3 2 2 2 2 2 3
1 2 3 4 3 1 1 1 0 4 1 5 7 6 5 6 6 4 4 4 4 4 3 3 4 4 4 4 4 4 5 5 6 6 6 6 4 3 2 2 3 3 3 3 2 2 2 2 3
1 3 5 3 2 1 1 4 2 3 3 5 5 5 4 4 4 4 4 4 5 4 3 3 3 4 4 4 4 4 5 5 5 5 6 6 5 4 3 2 2 3 4 4 3 3 2 2 2
3 3 3 4 2 2 2 3 2 0 4 4 3 3 3 3 3 3 3 4 4 4 3 2 3 4 4 3 4 4 4 5 5 5 6 6 6 5 4 2 3 4 4 3 2 2 2 2 3
4 2 3 5 3 2 1 4 3 0 3 3 3 3 4 3 2 3 3 4 4 4 4 3 3 4 3 3 4 4 4 5 4 5 5 6 7 6 4 3 3 4 3 2 3 2 2 2 3
2 1 3 4 4 2 1 6 6 3 3 4 4 4 5 5 5 3 3 4 4 3 3 3 3 3 3 3 3 3 3 3 4 4 4 5 6 6 5 3 4 4 2 3 3 2 2 2 3
3 2 3 5 3 1 3 7 9 5 4 5 5 6 6 6 4 3 3 3 3 3 3 3 3 2 2 2 1 1 1 2 2 3 5 5 5 5 4 3 3 4 3 3 3 3 3 2 2
1 1 3 4 3 1 3 7 7 5 5 6 7 7 6 5 3 4 3 3 4 3 3 3 3 2 2 1 1 1 1 0 1 2 4 5 5 5 4 3 3 3 3 3 3 3 2 2 2
1 2 2 2 5 3 4 7 5 3 2 3 5 5 5 6 7 5 5 4 4 4 4 4 3 2 2 2 2 2 2 2 2 2 2 4 5 5 4 3 3 3 2 2 3 3 2 2 2
2 1 1 1 3 3 3 4 6 4 5 4 4 3 4 5 5 5 5 5 5 5 4 3 3 3 2 2 2 2 1 1 1 1 2 3 4 4 4 4 3 2 2 2 3 2 2 2 2
1 1 1 1 1 2 1 1 7 3 4 5 4 4 4 4 5 6 6 6 5 4 3 3 3 3 2 3 3 2 1 1 1 1 2 3 3 4 4 4 3 2 2 3 3 3 3 2 2
0 3 4 4 3 2 2 3 6 4 5 5 4 4 4 4 4 4 4 3 3 3 3 3 3 2 3 3 3 3 3 2 2 2 3 3 3 3 3 3 3 3 3 3 3 3 3 3 3
4 4 4 5 3 4 1 3 8 6 5 5 6 5 4 4 4 4 4 4 4 4 4 3 3 3 3 3 3 4 4 3 3 3 3 3 3 3 3 3 2 3 3 3 3 3 3 3 3
1 4 4 3 4 5 2 6 7 5 5 4 4 3 2 2 3 4 5 5 5 5 5 4 4 4 4 4 4 3 3 3 3 3 3 3 3 3 3 3 3 3 3 3 2 2 3 3 3
3 2 3 4 1 3 6 7 8 3 2 2 1 1 0 1 2 3 3 4 5 5 5 5 5 5 4 4 4 3 3 3 4 4 3 3 3 3 3 3 3 3 3 3 3 2 3 3 3
2 5 4 3 1 4 6 6 5 5 3 2 2 2 2 1 2 2 3 3 4 4 4 4 5 5 4 4 4 3 4 4 4 3 4 4 4 3 3 3 3 3 3 3 3 3 3 3 4
3 3 3 3 3 3 4 7 5 6 4 3 4 3 3 3 3 3 3 3 3 2 3 3 4 4 4 4 4 4 4 4 3 4 4 4 4 4 3 4 3 3 4 3 3 3 3 3 3
4 5 6 3 4 4 3 8 5 5 5 3 4 4 4 4 4 3 3 2 2 3 3 4 4 4 5 4 4 4 4 4 4 4 5 4 4 4 4 3 4 4 4 3 4 4 4 3 3
Wind_Direction
348 3 57 57 67 66 230 234 213 189 206 226 149 139 148 150 165 186 340 105 123 139 146 146 143 138 132 125 120 116 111 108 106 106 105 107 109 110 114 115 115 115 111 111 109 110 111 110 111
347 23 57 67 121 199 248 230 211 205 186 128 58 88 103 106 40 92 70 97 118 129 136 142 140 138 133 128 125 120 115 110 107 104 104 104 108 111 109 106 111 114 113 111 111 111 114 116 118
7 47 89 94 158 195 217 221 207 224 153 119 82 58 121 140 106 188 222 127 115 120 127 134 134 135 131 128 125 121 116 112 109 107 104 105 107 111 112 111 107 107 109 114 116 118 121 120 126
67 50 62 106 211 221 223 243 207 169 50 61 113 91 47 19 273 212 129 126 121 117 121 129 130 131 130 127 124 119 115 112 110 106 105 103 102 108 110 112 114 115 113 113 121 128 130 130 136
61 83 86 203 237 251 255 273 215 164 159 94 118 124 32 349 25 94 111 119 124 119 113 121 121 122 123 123 121 118 115 111 109 106 104 101 97 95 105 112 117 124 127 125 125 136 146 144 144
61 77 125 218 243 272 270 268 160 126 122 137 126 125 193 15 62 97 106 106 108 110 100 109 116 111 115 119 117 116 113 110 106 102 99 97 96 99 104 100 108 128 141 151 158 165 158 171 177
114 113 171 202 236 266 251 198 148 140 153 199 162 130 205 21 62 96 98 92 84 83 86 85 98 101 99 101 109 111 107 102 99 91 90 88 89 100 104 100 92 99 148 181 194 208 214 212 210
123 113 143 197 207 249 250 129 170 154 186 187 144 150 193 198 114 95 89 85 79 68 67 70 79 85 84 84 86 92 93 88 85 79 76 74 77 86 92 94 99 81 196 212 227 230 236 239 242
86 88 201 209 202 238 245 115 354 121 127 103 215 191 181 134 114 105 95 80 76 65 54 57 67 73 78 80 75 75 78 78 77 70 66 65 62 64 75 74 58 18 324 275 274 263 251 246 248
88 168 226 224 209 216 222 183 185 96 71 108 67 71 111 122 125 121 122 118 104 84 61 56 59 68 71 74 67 63 64 62 62 62 60 58 58 56 57 52 37 13 1 331 310 300 281 267 261
113 194 246 283 280 215 207 217 173 148 217 208 186 163 137 130 131 128 127 130 128 112 84 64 59 63 69 66 66 60 57 54 51 51 52 54 53 47 41 37 22 15 7 353 329 327 315 294 273
101 274 237 274 320 55 202 198 161 208 229 203 178 156 147 149 153 150 145 144 126 112 97 71 67 70 68 68 66 63 55 50 44 39 44 51 50 43 32 31 17 15 358 341 333 322 309 298 284
224 293 320 303 349 23 88 261 223 279 264 139 131 136 151 156 155 148 140 139 130 122 110 92 79 78 75 69 60 60 57 54 49 43 41 48 53 44 28 16 12 1 352 336 318 309 303 295 288
250 319 318 322 327 2 88 305 279 275 180 125 137 149 159 162 162 149 142 147 146 138 127 105 88 84 81 74 65 57 55 56 53 47 41 43 46 39 28 17 9 355 340 320 301 289 281 277 278
23 359 347 336 334 336 60 340 267 260 115 124 142 150 156 162 161 165 171 169 162 148 132 120 113 93 82 76 69 64 55 54 49 42 37 35 35 32 26 15 1 346 340 333 319 309 298 287 282
36 34 343 318 359 352 97 274 291 181 136 151 164 166 170 175 178 181 173 169 161 146 134 126 110 99 86 77 68 59 52 53 42 34 31 32 31 28 26 18 352 343 348 345 318 303 296 289 286
33 16 302 312 347 18 127 247 271 358 144 188 201 199 192 195 205 203 188 175 164 156 146 131 110 103 91 77 68 62 53 49 38 35 27 24 25 24 27 16 354 350 354 346 323 316 300 294 300
255 262 283 290 321 2 264 259 273 263 211 221 221 215 207 207 218 204 191 176 162 151 141 131 110 97 91 76 64 52 49 40 34 32 27 24 22 19 23 18 2 360 354 347 337 319 317 297 300
194 198 269 281 308 324 254 271 275 263 226 230 229 222 221 222 223 187 180 167 150 147 144 140 126 112 98 86 82 60 27 17 21 23 21 19 18 15 21 12 1 1 356 344 340 330 328 328 320
166 237 292 311 347 337 295 286 275 250 229 223 222 223 221 220 211 194 183 175 173 174 173 164 158 143 132 126 132 139 159 323 331 359 11 10 8 4 9 9 353 355 348 349 351 344 328 332 352
10 197 237 300 340 18 350 315 294 290 258 248 232 219 215 211 208 201 195 195 186 193 190 180 174 158 151 129 102 81 58 22 5 359 352 351 353 354 355 353 350 348 343 333 336 329 319 313 326
297 251 209 0 18 323 28 306 290 292 299 276 260 242 229 219 206 201 198 201 204 208 195 186 172 160 153 143 137 141 150 218 271 297 313 328 347 348 346 348 344 337 334 320 315 325 307 288 294
231 351 31 53 112 341 11 210 287 316 289 282 270 253 243 220 204 205 206 204 204 195 189 193 173 169 163 156 164 164 193 222 264 301 315 322 330 337 342 341 338 327 320 309 306 308 295 280 267
174 50 48 48 64 315 244 184 278 257 245 276 276 261 246 224 210 216 212 193 193 183 180 186 181 192 180 177 180 183 207 228 265 298 306 311 315 319 332 335 335 325 317 307 300 292 287 279 273
55 71 24 2 1 261 260 217 253 261 257 254 263 263 246 215 200 207 206 201 202 199 196 194 197 213 204 196 198 200 210 216 229 256 275 289 300 302 309 322 317 313 309 309 307 301 294 286 278
102 120 148 213 249 290 299 243 259 277 286 273 258 252 231 212 210 215 217 211 211 209 202 200 209 223 213 208 215 212 211 217 233 239 248 263 271 279 292 299 302 303 307 311 311 302 297 293 283
124 148 155 137 150 281 275 285 301 295 326 1 14 32 221 230 231 234 232 221 218 215 214 213 215 226 225 219 217 218 217 219 235 246 249 262 267 275 284 287 292 299 301 297 294 288 288 288 281
126 145 108 126 182 278 293 282 261 287 295 321 321 305 289 280 266 264 253 241 236 227 224 218 218 224 229 223 224 228 228 229 233 240 251 258 267 270 277 280 282 290 295 294 287 285 286 285 283
133 134 132 131 168 191 275 274 231 227 242 269 277 286 279 275 267 264 259 247 245 245 236 232 230 230 230 226 225 231 237 235 234 238 247 252 261 263 268 270 274 279 284 286 282 279 285 281 286
189 187 159 171 225 199 224 269 272 234 243 254 279 299 303 293 277 264 257 248 245 250 252 244 239 235 236 229 228 235 239 235 235 242 247 245 251 257 257 262 266 272 276 275 271 277 279 273 276
Height
1495 1496 1497 1500 1504 1513 1511 1506 1502 1501 1501 1500 1499 1500 1502 1504 1507 1512 1507 1507 1509 1512 1514 1516 1518 1521 1522 1524 1525 1526 1527 1528 1529 1530 1531 1532 1532 1533 1534 1535 1536 1537 1538 1539 1540 1540 1541 1541 1542
1494 1496 1499 1499 1508 1515 1510 1503 1501 1498 1498 1498 1499 1500 1501 1502 1503 1504 1505 1507 1509 1512 1514 1516 1518 1520 1522 1523 1525 1526 1527 1528 1529 1530 1531 1531 1532 1533 1534 1535 1536 1537 1538 1539 1539 1540 1541 1541 1542
1494 1495 1498 1501 1508 1509 1504 1499 1498 1497 1497 1497 1499 1500 1500 1502 1503 1504 1505 1507 1509 1512 1514 1516 1518 1520 1522 1523 1524 1525 1527 1528 1529 1530 1531 1531 1532 1533 1534 1535 1536 1536 1537 1538 1539 1540 1540 1541 1542
1494 1497 1498 1504 1504 1503 1499 1497 1496 1496 1497 1497 1498 1500 1501 1502 1503 1504 1505 1507 1510 1512 1514 1516 1517 1519 1521 1523 1524 1525 1526 1527 1528 1529 1530 1531 1532 1533 1533 1534 1535 1536 1537 1538 1538 1539 1540 1541 1541
1494 1496 1502 1506 1503 1500 1497 1496 1496 1496 1497 1497 1498 1499 1500 1502 1502 1504 1506 1507 1509 1512 1514 1515 1517 1519 1520 1522 1523 1524 1525 1526 1528 1529 1529 1530 1531 1532 1533 1534 1535 1535 1536 1537 1538 1538 1539 1540 1540
1494 1496 1506 1507 1502 1498 1496 1495 1495 1495 1497 1497 1498 1499 1500 1502 1502 1504 1506 1507 1509 1511 1513 1515 1517 1518 1519 1521 1522 1523 1524 1525 1527 1528 1529 1529 1530 1531 1532 1533 1534 1535 1535 1536 1536 1537 1538 1539 1540
1495 1499 1504 1503 1502 1499 1495 1494 1495 1495 1496 1497 1497 1498 1499 1501 1503 1504 1506 1507 1509 1511 1513 1514 1515 1517 1518 1520 1521 1522 1523 1524 1525 1526 1527 1528 1529 1530 1531 1531 1532 1533 1534 1535 1535 1536 1537 1537 1538
1494 1499 1502 1503 1501 1498 1495 1494 1494 1495 1496 1497 1497 1497 1499 1500 1502 1504 1505 1507 1509 1510 1512 1513 1515 1516 1517 1518 1520 1520 1522 1523 1524 1525 1526 1527 1528 1528 1529 1530 1531 1531 1532 1533 1534 1534 1535 1536 1537
1494 1502 1503 1501 1499 1496 1494 1493 1494 1494 1495 1495 1496 1496 1498 1499 1501 1503 1504 1506 1508 1510 1510 1512 1513 1515 1516 1517 1518 1519 1520 1521 1523 1524 1524 1525 1526 1527 1527 1528 1529 1530 1530 1531 1532 1533 1533 1534 1535
1495 1502 1498 1496 1495 1494 1493 1493 1493 1494 1494 1494 1495 1495 1497 1499 1500 1502 1503 1505 1507 1509 1510 1511 1512 1514 1515 1517 1517 1518 1519 1520 1521 1522 1523 1523 1524 1525 1525 1526 1527 1527 1528 1529 1530 1530 1531 1531 1532
1495 1498 1496 1494 1493 1493 1493 1493 1493 1493 1494 1492 1492 1494 1496 1498 1500 1501 1503 1505 1507 1508 1509 1510 1511 1512 1514 1515 1517 1517 1518 1518 1519 1520 1521 1521 1522 1523 1523 1524 1524 1525 1526 1526 1527 1528 1528 1529 1529
1497 1496 1495 1494 1493 1493 1493 1492 1492 1492 1491 1491 1492 1493 1495 1497 1499 1501 1503 1505 1506 1508 1509 1510 1510 1511 1513 1514 1515 1516 1517 1517 1518 1518 1519 1519 1520 1521 1521 1522 1522 1522 1523 1523 1524 1525 1526 1526 1526
1497 1496 1495 1493 1492 1492 1492 1492 1492 1490 1490 1490 1492 1493 1495 1497 1499 1501 1503 1504 1506 1508 1509 1510 1511 1512 1513 1513 1514 1515 1515 1516 1516 1517 1517 1518 1518 1518 1519 1519 1520 1520 1520 1521 1521 1522 1523 1523 1523
1496 1496 1495 1493 1492 1492 1492 1492 1492 1489 1489 1490 1491 1493 1495 1497 1499 1500 1502 1503 1505 1507 1508 1510 1511 1512 1512 1513 1513 1514 1514 1514 1515 1515 1515 1516 1516 1516 1517 1517 1517 1517 1518 1518 1518 1518 1519 1520 1520
1496 1497 1495 1493 1492 1492 1493 1493 1491 1489 1489 1490 1492 1493 1495 1497 1498 1500 1501 1503 1505 1506 1508 1509 1510 1511 1512 1512 1512 1513 1513 1513 1513 1513 1514 1514 1514 1514 1514 1514 1514 1514 1514 1515 1515 1515 1515 1516 1516
1497 1500 1501 1495 1493 1492 1496 1497 1491 1490 1489 1490 1492 1493 1495 1497 1498 1500 1501 1503 1504 1506 1507 1508 1509 1510 1511 1511 1511 1512 1512 1512 1512 1512 1512 1512 1512 1512 1512 1512 1512 1512 1511 1511 1511 1511 1511 1512 1512
1503 1506 1503 1498 1494 1494 1495 1496 1491 1490 1490 1490 1491 1493 1494 1495 1497 1498 1500 1502 1503 1505 1506 1507 1508 1509 1510 1510 1510 1511 1511 1511 1511 1510 1510 1510 1510 1510 1510 1509 1509 1509 1508 1508 1508 1508 1508 1508 1508
1506 1506 1504 1501 1497 1496 1496 1494 1490 1490 1490 1490 1491 1491 1492 1493 1495 1497 1499 1500 1502 1504 1505 1506 1507 1508 1508 1509 1509 1510 1510 1509 1509 1509 1509 1509 1508 1508 1507 1507 1506 1506 1505 1505 1505 1505 1504 1504 1504
1503 1504 1504 1501 1497 1497 1497 1494 1489 1488 1488 1488 1488 1489 1490 1491 1493 1495 1497 1499 1500 1502 1503 1505 1505 1506 1507 1507 1508 1508 1508 1508 1508 1508 1507 1506 1506 1505 1505 1504 1504 1503 1502 1502 1502 1501 1501 1501 1501
1502 1504 1504 1501 1498 1498 1497 1494 1487 1485 1485 1485 1485 1486 1487 1489 1491 1493 1495 1497 1499 1501 1502 1503 1504 1505 1505 1506 1506 1506 1506 1506 1506 1506 1505 1504 1504 1503 1502 1502 1501 1500 1500 1499 1499 1498 1498 1498 1498
1504 1505 1504 1503 1500 1499 1499 1493 1487 1484 1484 1484 1483 1483 1484 1486 1488 1491 1493 1495 1497 1499 1500 1501 1502 1503 1504 1504 1504 1505 1505 1504 1504 1504 1503 1502 1501 1501 1500 1499 1498 1497 1497 1496 1496 1496 1495 1495 1495
1504 1502 1502 1502 1505 1507 1505 1504 1489 1486 1484 1482 1481 1481 1482 1484 1487 1489 1491 1493 1495 1497 1499 1500 1501 1501 1502 1502 1502 1502 1502 1502 1502 1501 1501 1500 1499 1498 1497 1496 1495 1494 1494 1493 1493 1492 1492 1492 1492
1504 1503 1503 1504 1506 1509 1507 1507 1494 1487 1484 1481 1479 1480 1481 1483 1485 1487 1489 1491 1494 1495 1497 1498 1498 1499 1500 1500 1500 1500 1500 1499 1499 1499 1498 1497 1496 1495 1494 1493 1492 1491 1490 1490 1489 1489 1489 1488 1488
1503 1504 1506 1510 1511 1510 1506 1509 1498 1489 1482 1480 1478 1478 1479 1481 1483 1486 1488 1490 1491 1493 1494 1495 1496 1497 1497 1497 1497 1497 1497 1496 1496 1495 1494 1494 1493 1492 1491 1489 1488 1488 1487 1486 1486 1485 1485 1484 1484
1505 1510 1517 1514 1518 1511 1507 1507 1497 1482 1479 1478 1477 1477 1477 1479 1481 1484 1486 1487 1489 1490 1492 1493 1493 1494 1494 1495 1494 1494 1494 1493 1492 1492 1491 1490 1489 1488 1487 1486 1485 1484 1483 1483 1482 1481 1481 1480 1480
1508 1510 1517 1516 1516 1515 1509 1506 1490 1480 1478 1476 1476 1476 1476 1478 1480 1482 1484 1485 1487 1488 1489 1490 1491 1491 1492 1492 1491 1491 1491 1490 1489 1488 1488 1487 1485 1484 1483 1482 1481 1481 1480 1479 1478 1478 1477 1477 1476
1509 1513 1513 1520 1522 1520 1508 1501 1487 1478 1477 1476 1476 1476 1476 1477 1479 1480 1482 1483 1485 1486 1487 1488 1488 1488 1488 1488 1488 1488 1487 1486 1486 1485 1484 1483 1482 1481 1480 1479 1478 1477 1476 1475 1474 1474 1473 1472 1472
1508 1511 1517 1518 1515 1512 1505 1501 1492 1480 1478 1477 1477 1476 1476 1477 1478 1479 1481 1481 1482 1483 1484 1485 1485 1485 1485 1485 1484 1484 1483 1483 1482 1481 1480 1480 1479 1478 1476 1475 1474 1473 1472 1471 1470 1469 1469 1468 1467
1510 1511 1513 1518 1518 1516 1512 1497 1481 1478 1476 1477 1476 1476 1476 1476 1477 1478 1479 1480 1480 1481 1481 1481 1481 1481 1481 1481 1480 1480 1479 1478 1477 1477 1476 1476 1475 1474 1473 1471 1470 1469 1468 1467 1466 1465 1464 1463 1463
1507 1508 1512 1513 1515 1520 1518 1498 1475 1475 1475 1475 1475 1475 1474 1475 1475 1476 1476 1477 1477 1478 1478 1478 1478 1478 1477 1477 1476 1475 1475 1474 1473 1472 1472 1471 1471 1470 1469 1468 1466 1465 1464 1463 1462 1461 1460 1459 1458